COSMOS 1275 DEB, 13019

Orbit data source: Space-Track

COSMOS 1275 DEB, 13019 is space debris in LEO originally from a launch on Thu, 04 Jun 1981 UTC launched from the Plesetsk Missile And Space Complex (PKMTR). Debris objects in space refer to the collection of defunct objects orbiting the Earth. Examples of debris include non-operational satellites, rocket bodies, and fragments generated from explosions, collisions, or faulty payload assembly.

Loading next visibility...
Identifier
13019, 1981-053ER
Orbit
LEO
Country
Flag of CISCIS
Related business
Manufacturer
Unknown
Mission
Spacecraft
Bus & Motor
Unknown
Mass
Unknown
Launch date (UTC)
1981-06-04 (44 years ago)
Launch vehicle
Unknown
Launch site
Plesetsk Missile And Space Complex (PKMTR)
Object type
Payload
Rocket body
Debris
Shape & HBR
Unknown shape, 0.1 m
Radar Cross Section
Small (<0.1 m²)

Expand to show TLE details & history
Last TLE update: 6 hours ago

TLE from 6 hours ago
0 COSMOS 1275 DEB
1 13019U 81053ER  25286.96502856  .00003019  00000-0  19642-2 0  9992
2 13019  82.9377 279.4528 0067740 305.9041  82.6929 14.01092117211900
Epoch: 2025-10-13T23:09Z
TLE epoch observation values (Epoch: 2025-10-13T23:09:38.467Z)
Latitude
29.17048°
Longitude
-86.77313°
Altitude
887.726 km
Speed
7.414 km/s
True Right ascension
18h 53m 35s
True Declination
29° 01' 37"
Sunlit
Object was in daylight at epoch
Visualization orbit readout
Latitude
Unknown
Longitude
Unknown
Altitude
Unknown
Speed
Unknown
Apparent Right ascension
Unknown
Apparent Declination
Unknown
Sunlit
N/A
Visualization observer readout
Local Sidereal Time
23:45:13
Azimuth
Unknown
Elevation
Unknown
Doppler factor
Unknown
Orbital elements
Apogee altitude
936.343 km
Perigee altitude
837.914 km
Semi-major axis
7,265.266 km
Eccentricity
0.00677
Inclination
82.9377°
RAAN
279.4528°
Arg. of periapsis
305.9041°
True anomaly
83.46365°
Mean anomaly
82.6929°
Eccentric anomaly
83.07819°
Mean motion
3.50482 °/min
Orbital period
102.72 mins
BSTAR
0.0019642
Loading maneuver chart data...
Computing Atmospheric mass density...
Loading historical data...
Loading historical data...
Loading historical data...
Loading historical data...
Loading historical data...
Loading historical data...
Loading historical data...

Documentation

Showing up to 5 results
|